13-10-2022, 00:00:00,    241,    0.4,   11.0,   0.00,   0.00, 1013.9,   90.3, -999.0
13-10-2022, 00:00:10,    288,    0.1,   11.0,   0.00,   0.00, 1013.8,   90.2, -999.0
13-10-2022, 00:00:20,    293,    0.1,   11.0,   0.00,   0.00, 1013.9,   90.3, -999.0
13-10-2022, 00:00:30,    294,    0.0,   11.0,   0.00,   0.00, 1013.8,   90.4, -999.0
13-10-2022, 00:00:40,    292,    0.0,   11.0,   0.00,   0.00, 1013.8,   90.3, -999.0
13-10-2022, 00:00:50,    293,    0.0,   10.9,   0.00,   0.00, 1013.8,   90.4, -999.0
13-10-2022, 00:01:00,    279,    1.1,   11.1,   0.00,   0.00, 1013.9,   90.5, -999.0
13-10-2022, 00:01:10,    251,    2.2,   11.1,   0.00,   0.00, 1013.9,   90.6, -999.0
13-10-2022, 00:01:20,    209,    1.3,   11.1,   0.00,   0.00, 1013.9,   90.7, -999.0
13-10-2022, 00:01:30,    210,    0.3,   11.1,   0.00,   0.00, 1013.9,   90.9, -999.0
13-10-2022, 00:01:40,    227,    1.6,   11.2,   0.00,   0.00, 1013.9,   91.1, -999.0
13-10-2022, 00:01:50,    225,    0.2,   11.2,   0.00,   0.00, 1013.8,   91.0, -999.0
13-10-2022, 00:02:00,    225,    0.0,   11.0,   0.00,   0.00, 1013.8,   90.7, -999.0
13-10-2022, 00:02:10,    225,    0.1,   11.0,   0.00,   0.00, 1013.9,   91.0, -999.0
13-10-2022, 00:02:20,    226,    0.0,   11.0,   0.00,   0.00, 1013.8,   90.8, -999.0
13-10-2022, 00:02:29,    226,    0.2,   11.0,   0.00,   0.00, 1013.9,   90.9, -999.0
13-10-2022, 00:02:40,    226,    0.4,   11.1,   0.00,   0.00, 1013.9,   91.1, -999.0
13-10-2022, 00:02:50,    226,    0.0,   11.1,   0.00,   0.00, 1013.8,   90.7, -999.0
13-10-2022, 00:02:59,    226,    0.0,   11.0,   0.00,   0.00, 1013.8,   90.7, -999.0
13-10-2022, 00:03:09,    227,    0.0,   11.0,   0.00,   0.00, 1013.9,   90.7, -999.0
13-10-2022, 00:03:20,    226,    0.0,   11.0,   0.00,   0.00, 1013.9,   90.7, -999.0
13-10-2022, 00:03:29,    228,    0.0,   11.0,   0.00,   0.00, 1013.9,   90.7, -999.0
13-10-2022, 00:03:39,    229,    0.0,   10.9,   0.00,   0.00, 1013.9,   90.7, -999.0
13-10-2022, 00:03:49,    231,    0.4,   11.0,   0.00,   0.00, 1014.0,   91.1, -999.0
13-10-2022, 00:03:59,    233,    0.6,   11.0,   0.00,   0.00, 1014.0,   91.1, -999.0
13-10-2022, 00:04:09,    232,    0.1,   11.0,   0.00,   0.00, 1013.9,   90.8, -999.0
13-10-2022, 00:04:19,    232,    0.0,   11.0,   0.00,   0.00, 1013.9,   90.8, -999.0
13-10-2022, 00:04:29,    232,    0.0,   11.0,   0.00,   0.00, 1013.9,   90.9, -999.0
13-10-2022, 00:04:39,    233,    0.0,   11.0,   0.00,   0.00, 1013.9,   91.0, -999.0
13-10-2022, 00:04:49,    233,    0.0,   11.0,   0.00,   0.00, 1013.9,   90.9, -999.0
13-10-2022, 00:04:59,    233,    0.0,   11.0,   0.00,   0.00, 1013.9,   90.8, -999.0
13-10-2022, 00:05:09,    233,    0.0,   11.1,   0.00,   0.00, 1013.9,   91.0, -999.0
13-10-2022, 00:05:19,    233,    0.0,   11.0,   0.00,   0.00, 1013.9,   91.1, -999.0
13-10-2022, 00:05:29,    233,    0.0,   11.0,   0.00,   0.00, 1013.9,   91.0, -999.0
13-10-2022, 00:05:38,    235,    0.0,   11.0,   0.00,   0.00, 1014.0,   91.2, -999.0
13-10-2022, 00:05:49,    234,    0.0,   11.0,   0.00,   0.00, 1013.9,   90.9, -999.0
13-10-2022, 00:05:59,    234,    0.0,   11.0,   0.00,   0.00, 1013.9,   90.9, -999.0
13-10-2022, 00:06:08,    235,    0.0,   11.0,   0.00,   0.00, 1013.9,   91.2, -999.0
13-10-2022, 00:06:18,    236,    0.7,   11.1,   0.00,   0.00, 1014.0,   91.4, -999.0
13-10-2022, 00:06:28,    236,    0.7,   11.1,   0.00,   0.00, 1014.0,   91.2, -999.0
13-10-2022, 00:06:38,    213,    0.0,   11.0,   0.00,   0.00, 1013.9,   91.1, -999.0
13-10-2022, 00:06:48,    213,    0.0,   10.9,   0.00,   0.00, 1013.9,   91.0, -999.0
13-10-2022, 00:06:58,    213,    0.0,   10.9,   0.00,   0.00, 1013.9,   91.0, -999.0
13-10-2022, 00:07:08,    227,    0.1,   11.0,   0.00,   0.00, 1013.9,   91.1, -999.0
13-10-2022, 00:07:18,    227,    0.8,   11.0,   0.00,   0.00, 1014.1,   91.4, -999.0
13-10-2022, 00:07:28,    228,    0.2,   11.0,   0.00,   0.00, 1013.9,   91.1, -999.0
13-10-2022, 00:07:38,    222,    0.0,   10.9,   0.00,   0.00, 1013.9,   91.3, -999.0
13-10-2022, 00:07:48,    222,    0.0,   11.0,   0.00,   0.00, 1013.9,   91.4, -999.0
13-10-2022, 00:07:58,    223,    0.0,   11.0,   0.00,   0.00, 1013.9,   91.4, -999.0
13-10-2022, 00:08:08,    222,    0.0,   11.0,   0.00,   0.00, 1013.9,   91.7, -999.0
13-10-2022, 00:08:18,    222,    0.0,   11.0,   0.00,   0.00, 1013.9,   91.7, -999.0
13-10-2022, 00:08:28,    222,    0.0,   11.0,   0.00,   0.00, 1013.9,   91.7, -999.0
13-10-2022, 00:08:38,    227,    0.0,   11.0,   0.00,   0.00, 1013.9,   91.7, -999.0
13-10-2022, 00:08:47,    227,    0.0,   11.0,   0.00,   0.00, 1013.9,   91.6, -999.0
13-10-2022, 00:08:58,    227,    0.0,   11.0,   0.00,   0.00, 1013.9,   91.5, -999.0
13-10-2022, 00:09:08,    227,    0.0,   11.0,   0.00,   0.00, 1013.9,   91.5, -999.0
13-10-2022, 00:09:17,    227,    0.0,   11.0,   0.00,   0.00, 1013.9,   92.0, -999.0
13-10-2022, 00:09:27,    227,    0.0,   10.9,   0.00,   0.00, 1013.9,   92.1, -999.0
13-10-2022, 00:09:37,    226,    0.0,   10.9,   0.00,   0.00, 1013.9,   92.0, -999.0
13-10-2022, 00:09:47,    226,    0.0,   11.0,   0.00,   0.00, 1013.9,   92.0, -999.0
13-10-2022, 00:09:57,    226,    0.0,   11.0,   0.00,   0.00, 1013.9,   92.0, -999.0
13-10-2022, 00:10:07,    226,    0.0,   11.0,   0.00,   0.00, 1013.9,   92.1, -999.0
13-10-2022, 00:10:17,    222,    0.0,   11.0,   0.00,   0.00, 1013.9,   92.2, -999.0
13-10-2022, 00:10:27,    223,    0.0,   11.0,   0.00,   0.00, 1013.9,   92.0, -999.0
13-10-2022, 00:10:37,    225,    0.0,   11.0,   0.00,   0.00, 1013.9,   91.8, -999.0
13-10-2022, 00:10:47,    225,    0.0,   11.0,   0.00,   0.00, 1013.9,   91.7, -999.0
13-10-2022, 00:10:57,    225,    0.0,   11.0,   0.00,   0.00, 1013.9,   91.6, -999.0
13-10-2022, 00:11:07,    224,    0.0,   11.0,   0.00,   0.00, 1013.9,   91.7, -999.0
13-10-2022, 00:11:17,    225,    0.0,   11.0,   0.00,   0.00, 1013.9,   91.7, -999.0
13-10-2022, 00:11:27,    225,    0.0,   11.0,   0.00,   0.00, 1013.9,   91.6, -999.0
13-10-2022, 00:11:37,    225,    0.0,   11.0,   0.00,   0.00, 1013.9,   91.6, -999.0
13-10-2022, 00:11:47,    225,    0.0,   11.0,   0.00,   0.00, 1013.9,   91.6, -999.0
13-10-2022, 00:11:56,    225,    0.0,   11.0,   0.00,   0.00, 1013.9,   91.6, -999.0
13-10-2022, 00:12:07,    224,    0.0,   11.0,   0.00,   0.00, 1013.9,   91.7, -999.0
13-10-2022, 00:12:17,    224,    0.0,   10.9,   0.00,   0.00, 1013.9,   91.7, -999.0
13-10-2022, 00:12:26,    224,    0.0,   10.9,   0.00,   0.00, 1013.9,   91.6, -999.0
13-10-2022, 00:12:36,    224,    0.0,   10.8,   0.00,   0.00, 1013.9,   91.8, -999.0
13-10-2022, 00:12:46,    224,    0.0,   11.0,   0.00,   0.00, 1013.9,   91.8, -999.0
13-10-2022, 00:12:56,    224,    0.0,   10.9,   0.00,   0.00, 1013.9,   91.8, -999.0
13-10-2022, 00:13:06,    224,    0.0,   10.9,   0.00,   0.00, 1013.9,   91.7, -999.0
13-10-2022, 00:13:16,    223,    0.0,   10.9,   0.00,   0.00, 1013.9,   92.0, -999.0
13-10-2022, 00:13:26,    223,    0.0,   10.9,   0.00,   0.00, 1013.9,   92.3, -999.0
13-10-2022, 00:13:36,    223,    0.0,   10.8,   0.00,   0.00, 1013.9,   92.4, -999.0
13-10-2022, 00:13:46,    223,    0.0,   10.9,   0.00,   0.00, 1013.9,   92.7, -999.0
13-10-2022, 00:13:56,    223,    0.0,   10.9,   0.00,   0.00, 1013.9,   92.8, -999.0
13-10-2022, 00:14:06,    223,    0.0,   10.9,   0.00,   0.00, 1013.9,   92.8, -999.0
13-10-2022, 00:14:16,    224,    0.0,   10.9,   0.00,   0.00, 1013.9,   92.9, -999.0
13-10-2022, 00:14:26,    222,    0.0,   10.9,   0.00,   0.00, 1013.9,   92.8, -999.0
13-10-2022, 00:14:36,    222,    0.0,   10.9,   0.00,   0.00, 1013.9,   93.0, -999.0
13-10-2022, 00:14:46,    222,    0.0,   11.0,   0.00,   0.00, 1013.9,   92.9, -999.0
13-10-2022, 00:14:56,    222,    0.0,   10.9,   0.00,   0.00, 1013.9,   92.9, -999.0
13-10-2022, 00:15:05,    222,    0.0,   10.9,   0.00,   0.00, 1013.9,   92.9, -999.0
13-10-2022, 00:15:16,    222,    0.0,   11.0,   0.00,   0.00, 1013.9,   93.1, -999.0
13-10-2022, 00:15:26,    222,    0.0,   10.9,   0.00,   0.00, 1013.9,   93.0, -999.0
13-10-2022, 00:15:35,    222,    0.0,   10.9,   0.00,   0.00, 1013.9,   93.1, -999.0
13-10-2022, 00:15:45,    223,    0.0,   10.9,   0.00,   0.00, 1013.9,   93.1, -999.0
13-10-2022, 00:15:55,    222,    0.0,   11.0,   0.00,   0.00, 1013.9,   93.1, -999.0
13-10-2022, 00:16:05,    222,    0.0,   11.0,   0.00,   0.00, 1013.9,   93.2, -999.0
13-10-2022, 00:16:15,    222,    0.0,   11.0,   0.00,   0.00, 1013.9,   93.1, -999.0
13-10-2022, 00:16:25,    222,    0.0,   11.0,   0.00,   0.00, 1013.9,   92.9, -999.0
13-10-2022, 00:16:35,    222,    0.0,   10.9,   0.00,   0.00, 1013.9,   92.7, -999.0
13-10-2022, 00:16:45,    222,    0.0,   10.8,   0.00,   0.00, 1013.9,   92.7, -999.0
13-10-2022, 00:16:55,    222,    0.0,   11.0,   0.00,   0.00, 1013.9,   92.7, -999.0
13-10-2022, 00:17:05,    222,    0.0,   10.9,   0.00,   0.00, 1013.9,   92.6, -999.0
13-10-2022, 00:17:15,    223,    0.0,   10.9,   0.00,   0.00, 1013.9,   92.5, -999.0
13-10-2022, 00:17:25,    222,    0.0,   10.9,   0.00,   0.00, 1013.9,   92.5, -999.0
13-10-2022, 00:17:35,    222,    0.0,   10.9,   0.00,   0.00, 1013.9,   92.4, -999.0
13-10-2022, 00:17:45,    222,    0.0,   10.9,   0.00,   0.00, 1013.9,   92.5, -999.0
13-10-2022, 00:17:55,    222,    0.0,   10.9,   0.00,   0.00, 1013.9,   92.7, -999.0
13-10-2022, 00:18:05,    222,    0.0,   10.9,   0.00,   0.00, 1013.9,   92.8, -999.0
13-10-2022, 00:18:14,    222,    0.0,   11.0,   0.00,   0.00, 1013.9,   92.8, -999.0
13-10-2022, 00:18:25,    222,    0.0,   11.0,   0.00,   0.00, 1013.9,   92.9, -999.0
13-10-2022, 00:18:34,    222,    0.0,   10.9,   0.00,   0.00, 1013.9,   92.8, -999.0
13-10-2022, 00:18:44,    222,    0.0,   10.9,   0.00,   0.00, 1013.9,   92.6, -999.0
13-10-2022, 00:18:54,    222,    0.0,   10.9,   0.00,   0.00, 1013.9,   92.5, -999.0
13-10-2022, 00:19:04,    222,    0.0,   10.9,   0.00,   0.00, 1013.9,   92.6, -999.0
13-10-2022, 00:19:14,    222,    0.0,   10.8,   0.00,   0.00, 1013.9,   92.5, -999.0
13-10-2022, 00:19:24,    222,    0.0,   10.8,   0.00,   0.00, 1013.9,   92.5, -999.0
13-10-2022, 00:19:34,    222,    0.0,   10.9,   0.00,   0.00, 1013.9,   92.5, -999.0
13-10-2022, 00:19:44,    222,    0.0,   10.9,   0.00,   0.00, 1013.9,   92.6, -999.0
13-10-2022, 00:19:54,    222,    0.0,   10.9,   0.00,   0.00, 1013.9,   92.5, -999.0
13-10-2022, 00:20:04,    222,    0.0,   10.9,   0.00,   0.00, 1013.9,   92.6, -999.0
13-10-2022, 00:20:14,    222,    0.0,   10.9,   0.00,   0.00, 1013.9,   92.4, -999.0
13-10-2022, 00:20:24,    222,    0.0,   10.9,   0.00,   0.00, 1013.9,   92.4, -999.0
13-10-2022, 00:20:34,    222,    0.0,   10.9,   0.00,   0.00, 1013.9,   92.3, -999.0
13-10-2022, 00:20:44,    222,    0.0,   10.9,   0.00,   0.00, 1013.9,   92.5, -999.0
13-10-2022, 00:20:54,    222,    0.0,   10.9,   0.00,   0.00, 1013.9,   92.4, -999.0
13-10-2022, 00:21:04,    222,    0.0,   10.9,   0.00,   0.00, 1013.9,   92.4, -999.0
13-10-2022, 00:21:14,    222,    0.0,   10.9,   0.00,   0.00, 1013.9,   92.6, -999.0
13-10-2022, 00:21:23,    223,    0.0,   10.9,   0.00,   0.00, 1013.9,   92.7, -999.0
13-10-2022, 00:21:34,    222,    0.0,   10.9,   0.00,   0.00, 1013.9,   92.8, -999.0
13-10-2022, 00:21:44,    222,    0.0,   10.9,   0.00,   0.00, 1013.9,   92.8, -999.0
13-10-2022, 00:21:53,    222,    0.0,   10.9,   0.00,   0.00, 1013.9,   92.8, -999.0
13-10-2022, 00:22:03,    222,    0.0,   10.7,   0.00,   0.00, 1013.9,   93.0, -999.0
13-10-2022, 00:22:13,    222,    0.0,   10.9,   0.00,   0.00, 1013.9,   93.0, -999.0
13-10-2022, 00:22:23,    222,    0.0,   10.9,   0.00,   0.00, 1013.9,   93.1, -999.0
13-10-2022, 00:22:33,    220,    0.0,   10.9,   0.00,   0.00, 1013.9,   93.1, -999.0
13-10-2022, 00:22:43,    221,    0.0,   10.9,   0.00,   0.00, 1013.9,   93.7, -999.0
13-10-2022, 00:22:53,    220,    0.0,   10.9,   0.00,   0.00, 1013.9,   94.0, -999.0
13-10-2022, 00:23:03,    220,    0.0,   10.9,   0.00,   0.00, 1013.9,   93.9, -999.0
13-10-2022, 00:23:13,    221,    0.0,   10.9,   0.00,   0.00, 1013.9,   93.6, -999.0
13-10-2022, 00:23:23,    220,    0.0,   10.9,   0.00,   0.00, 1013.9,   93.5, -999.0
13-10-2022, 00:23:33,    221,    0.0,   10.9,   0.00,   0.00, 1013.9,   93.5, -999.0
13-10-2022, 00:23:43,    220,    0.0,   10.9,   0.00,   0.00, 1013.9,   93.7, -999.0
13-10-2022, 00:23:53,    221,    0.0,   10.9,   0.00,   0.00, 1013.9,   94.0, -999.0
13-10-2022, 00:24:03,    220,    0.0,   10.9,   0.00,   0.00, 1013.9,   94.1, -999.0
13-10-2022, 00:24:13,    220,    0.0,   10.9,   0.00,   0.00, 1013.9,   94.1, -999.0
13-10-2022, 00:24:23,    221,    0.0,   10.9,   0.00,   0.00, 1013.9,   94.1, -999.0
13-10-2022, 00:24:32,    224,    0.0,   10.9,   0.00,   0.00, 1013.9,   94.2, -999.0
13-10-2022, 00:24:43,    224,    0.0,   10.9,   0.00,   0.00, 1013.9,   94.1, -999.0
13-10-2022, 00:24:53,    224,    0.0,   10.9,   0.00,   0.00, 1013.9,   94.2, -999.0
13-10-2022, 00:25:02,    225,    0.0,   10.9,   0.00,   0.00, 1013.9,   94.4, -999.0
13-10-2022, 00:25:12,    224,    0.0,   10.9,   0.00,   0.00, 1014.0,   94.5, -999.0
13-10-2022, 00:25:22,    224,    0.0,   10.9,   0.00,   0.00, 1013.9,   94.9, -999.0
13-10-2022, 00:25:32,    225,    0.0,   10.9,   0.00,   0.00, 1013.9,   95.1, -999.0
13-10-2022, 00:25:42,    225,    0.0,   10.9,   0.00,   0.00, 1014.0,   95.5, -999.0
13-10-2022, 00:25:52,    225,    0.0,   10.9,   0.00,   0.00, 1014.0,   95.7, -999.0
13-10-2022, 00:26:02,    224,    0.0,   10.8,   0.00,   0.00, 1013.9,   95.7, -999.0
13-10-2022, 00:26:12,    226,    0.0,   10.9,   0.00,   0.00, 1013.9,   95.6, -999.0
13-10-2022, 00:26:22,    226,    0.0,   10.9,   0.00,   0.00, 1014.0,   95.6, -999.0
13-10-2022, 00:26:32,    226,    0.0,   10.9,   0.00,   0.00, 1013.9,   95.8, -999.0
13-10-2022, 00:26:42,    226,    0.0,   10.9,   0.00,   0.00, 1014.0,   95.9, -999.0
13-10-2022, 00:26:52,    229,    0.0,   10.9,   0.00,   0.00, 1014.0,   96.0, -999.0
13-10-2022, 00:27:02,    256,    0.9,   11.0,   0.00,   0.00, 1014.0,   96.3, -999.0
13-10-2022, 00:27:12,    255,    1.3,   11.0,   0.00,   0.00, 1014.1,   96.5, -999.0
13-10-2022, 00:27:22,    255,    0.7,   11.0,   0.00,   0.00, 1014.1,   96.5, -999.0
13-10-2022, 00:27:32,    247,    1.0,   11.0,   0.00,   0.00, 1014.1,   96.4, -999.0
13-10-2022, 00:27:41,    255,    0.6,   11.0,   0.00,   0.00, 1014.0,   96.4, -999.0
13-10-2022, 00:27:52,    224,    1.2,   11.0,   0.00,   0.00, 1014.1,   96.6, -999.0
13-10-2022, 00:28:02,    224,    0.7,   11.0,   0.00,   0.00, 1014.1,   97.2, -999.0
13-10-2022, 00:28:11,    224,    0.0,   10.9,   0.00,   0.00, 1014.0,   97.3, -999.0
13-10-2022, 00:28:21,    224,    0.0,   10.9,   0.00,   0.00, 1013.9,   97.3, -999.0
13-10-2022, 00:28:31,    225,    0.0,   10.9,   0.00,   0.00, 1014.0,   97.4, -999.0
13-10-2022, 00:28:41,    224,    0.0,   10.9,   0.00,   0.00, 1014.0,   97.1, -999.0
13-10-2022, 00:28:51,    224,    0.0,   10.9,   0.00,   0.00, 1014.0,   97.4, -999.0
13-10-2022, 00:29:01,    224,    0.0,   10.9,   0.00,   0.00, 1014.0,   97.5, -999.0
13-10-2022, 00:29:11,    224,    0.0,   10.9,   0.00,   0.00, 1013.9,   97.3, -999.0
13-10-2022, 00:29:21,    224,    0.0,   10.9,   0.00,   0.00, 1013.9,   97.5, -999.0
13-10-2022, 00:29:31,    224,    0.0,   10.9,   0.00,   0.00, 1013.9,   97.6, -999.0
13-10-2022, 00:29:41,    226,    0.0,   10.9,   0.00,   0.00, 1014.0,   97.6, -999.0
13-10-2022, 00:29:51,    226,    0.0,   10.9,   0.00,   0.00, 1014.0,   97.5, -999.0
13-10-2022, 00:30:01,    230,    0.0,   10.9,   0.00,   0.00, 1013.9,   97.4, -999.0
13-10-2022, 00:30:11,    234,    0.0,   10.9,   0.00,   0.00, 1013.9,   97.5, -999.0
13-10-2022, 00:30:20,    236,    0.5,   11.0,   0.00,   0.00, 1014.0,   97.6, -999.0
13-10-2022, 00:30:31,    250,    0.9,   11.0,   0.00,   0.00, 1014.1,   97.5, -999.0
13-10-2022, 00:30:41,    250,    0.0,   10.9,   0.00,   0.00, 1014.0,   97.1, -999.0
13-10-2022, 00:30:50,    250,    0.0,   10.9,   0.00,   0.00, 1013.9,   97.2, -999.0
13-10-2022, 00:31:01,    222,    0.0,   10.9,   0.00,   0.00, 1013.9,   97.7, -999.0
13-10-2022, 00:31:10,    222,    0.0,   10.9,   0.00,   0.00, 1013.9,   98.5, -999.0
13-10-2022, 00:31:20,    225,    0.1,   11.0,   0.00,   0.00, 1014.0,   98.7, -999.0
13-10-2022, 00:31:30,    226,    0.6,   11.1,   0.00,   0.00, 1014.0,   99.0, -999.0
13-10-2022, 00:31:40,    226,    0.0,   11.0,   0.00,   0.00, 1013.9,   98.4, -999.0
13-10-2022, 00:31:50,    225,    0.0,   10.9,   0.00,   0.00, 1013.9,   98.0, -999.0
13-10-2022, 00:32:00,    220,    0.1,   10.9,   0.00,   0.00, 1014.0,   98.2, -999.0
13-10-2022, 00:32:10,    221,    0.0,   10.9,   0.00,   0.00, 1013.9,   98.6, -999.0
13-10-2022, 00:32:20,    220,    0.0,   10.9,   0.00,   0.00, 1013.9,   98.5, -999.0
13-10-2022, 00:32:30,    220,    0.0,   10.8,   0.00,   0.00, 1013.9,   98.3, -999.0
13-10-2022, 00:32:40,    224,    0.0,   10.9,   0.00,   0.00, 1014.0,   98.3, -999.0
13-10-2022, 00:32:50,    244,    0.9,   11.0,   0.00,   0.00, 1014.0,   98.3, -999.0
13-10-2022, 00:33:00,    245,    0.2,   10.9,   0.00,   0.00, 1014.0,   98.3, -999.0
13-10-2022, 00:33:11,    245,    0.0,   10.9,   0.00,   0.00, 1013.9,   98.4, -999.0
13-10-2022, 00:33:20,    245,    0.0,   11.0,   0.00,   0.00, 1013.9,   98.5, -999.0
13-10-2022, 00:33:30,    245,    0.0,   10.9,   0.00,   0.00, 1013.9,   98.5, -999.0
13-10-2022, 00:33:40,    245,    0.0,   10.9,   0.00,   0.00, 1013.9,   98.6, -999.0
13-10-2022, 00:33:50,    245,    0.0,   10.9,   0.00,   0.00, 1013.9,   98.7, -999.0
13-10-2022, 00:33:59,    244,    0.2,   11.0,   0.00,   0.00, 1014.0,   98.8, -999.0
13-10-2022, 00:34:10,    244,    0.0,   11.0,   0.00,   0.00, 1013.9,   98.7, -999.0
13-10-2022, 00:34:19,    243,    0.0,   10.9,   0.00,   0.00, 1013.9,   98.6, -999.0
13-10-2022, 00:34:29,    243,    0.0,   10.9,   0.00,   0.00, 1013.9,   98.6, -999.0
13-10-2022, 00:34:39,    244,    0.0,   10.9,   0.00,   0.00, 1013.9,   98.6, -999.0
13-10-2022, 00:34:49,    244,    0.0,   11.0,   0.00,   0.00, 1013.9,   98.6, -999.0
13-10-2022, 00:34:59,    243,    0.0,   10.9,   0.00,   0.00, 1013.9,   98.6, -999.0
13-10-2022, 00:35:09,    244,    0.0,   10.9,   0.00,   0.00, 1013.9,   98.6, -999.0
13-10-2022, 00:35:19,    243,    0.0,   11.0,   0.00,   0.00, 1013.9,   98.6, -999.0
13-10-2022, 00:35:29,    244,    0.0,   10.9,   0.00,   0.00, 1013.9,   98.6, -999.0
13-10-2022, 00:35:39,    243,    0.0,   10.9,   0.00,   0.00, 1013.9,   98.6, -999.0
13-10-2022, 00:35:49,    243,    0.0,   10.9,   0.00,   0.00, 1013.9,   98.7, -999.0
13-10-2022, 00:35:59,    243,    0.0,   10.9,   0.00,   0.00, 1013.9,   98.6, -999.0
13-10-2022, 00:36:09,    243,    0.0,   11.0,   0.00,   0.00, 1013.9,   98.6, -999.0
13-10-2022, 00:36:19,    239,    0.0,   11.0,   0.00,   0.00, 1013.9,   98.7, -999.0
13-10-2022, 00:36:29,    239,    0.0,   10.9,   0.00,   0.00, 1013.9,   98.6, -999.0
13-10-2022, 00:36:39,    239,    0.0,   10.9,   0.00,   0.00, 1013.9,   98.6, -999.0
13-10-2022, 00:36:49,    239,    0.0,   11.0,   0.00,   0.00, 1013.9,   98.6, -999.0
13-10-2022, 00:36:59,    238,    0.0,   11.0,   0.00,   0.00, 1013.9,   98.7, -999.0
13-10-2022, 00:37:08,    239,    0.5,   11.0,   0.00,   0.00, 1014.0,   98.8, -999.0
13-10-2022, 00:37:19,    238,    1.0,   11.1,   0.00,   0.00, 1014.0,   99.0, -999.0
13-10-2022, 00:37:28,    236,    1.2,   11.0,   0.00,   0.00, 1014.1,   99.0, -999.0
13-10-2022, 00:37:38,    235,    0.6,   11.0,   0.00,   0.00, 1014.0,   98.8, -999.0
13-10-2022, 00:37:48,    235,    0.4,   10.9,   0.00,   0.00, 1014.0,   98.9, -999.0
13-10-2022, 00:37:58,    235,    1.0,   11.0,   0.00,   0.00, 1014.1,   98.9, -999.0
13-10-2022, 00:38:08,    236,    0.6,   11.0,   0.00,   0.00, 1014.0,   98.9, -999.0
13-10-2022, 00:38:18,    236,    0.1,   11.0,   0.00,   0.00, 1014.0,   98.9, -999.0
13-10-2022, 00:38:28,    235,    0.3,   10.9,   0.00,   0.00, 1014.0,   98.8, -999.0
13-10-2022, 00:38:38,    234,    1.0,   11.0,   0.00,   0.00, 1014.1,   99.0, -999.0
13-10-2022, 00:38:48,    234,    0.2,   11.0,   0.00,   0.00, 1014.0,   98.8, -999.0
13-10-2022, 00:38:58,    234,    0.0,   10.9,   0.00,   0.00, 1013.9,   98.6, -999.0
13-10-2022, 00:39:08,    234,    0.0,   10.9,   0.00,   0.00, 1013.9,   98.6, -999.0
13-10-2022, 00:39:18,    234,    0.0,   10.9,   0.00,   0.00, 1013.9,   98.7, -999.0
13-10-2022, 00:39:28,    234,    0.0,   10.9,   0.00,   0.00, 1013.9,   98.6, -999.0
13-10-2022, 00:39:38,    234,    0.0,   10.9,   0.00,   0.00, 1014.0,   98.6, -999.0
13-10-2022, 00:39:48,    234,    0.0,   10.9,   0.00,   0.00, 1014.0,   98.6, -999.0
13-10-2022, 00:39:58,    234,    0.0,   10.8,   0.00,   0.00, 1014.0,   98.6, -999.0
13-10-2022, 00:40:07,    234,    0.0,   10.9,   0.00,   0.00, 1013.9,   98.5, -999.0
13-10-2022, 00:40:17,    234,    0.0,   10.9,   0.00,   0.00, 1013.9,   98.4, -999.0
13-10-2022, 00:40:28,    234,    0.2,   10.8,   0.00,   0.00, 1014.0,   98.7, -999.0
13-10-2022, 00:40:37,    234,    0.1,   10.8,   0.00,   0.00, 1014.0,   98.6, -999.0
13-10-2022, 00:40:47,    234,    0.0,   10.8,   0.00,   0.00, 1014.0,   98.5, -999.0
13-10-2022, 00:40:57,    218,    0.5,   10.8,   0.00,   0.00, 1014.0,   98.8, -999.0
13-10-2022, 00:41:07,    216,    1.3,   10.9,   0.00,   0.00, 1014.1,   99.0, -999.0
13-10-2022, 00:41:17,    210,    1.0,   10.9,   0.00,   0.00, 1014.1,   99.0, -999.0
13-10-2022, 00:41:27,    200,    0.2,   10.9,   0.00,   0.00, 1014.1,   99.0, -999.0
13-10-2022, 00:41:37,    193,    0.4,   10.9,   0.00,   0.00, 1014.0,   98.9, -999.0
13-10-2022, 00:41:47,    206,    1.1,   10.9,   0.00,   0.00, 1014.1,   99.0, -999.0
13-10-2022, 00:41:57,    216,    0.7,   10.9,   0.00,   0.00, 1014.0,   98.9, -999.0
13-10-2022, 00:42:07,    218,    0.0,   10.8,   0.00,   0.00, 1014.0,   98.8, -999.0
13-10-2022, 00:42:17,    218,    0.0,   10.8,   0.00,   0.00, 1013.9,   98.7, -999.0
13-10-2022, 00:42:27,    218,    0.0,   10.8,   0.00,   0.00, 1013.9,   98.6, -999.0
13-10-2022, 00:42:37,    212,    0.0,   10.8,   0.00,   0.00, 1013.9,   98.6, -999.0
13-10-2022, 00:42:46,    211,    0.0,   10.8,   0.00,   0.00, 1013.9,   98.6, -999.0
13-10-2022, 00:42:57,    211,    0.0,   10.9,   0.00,   0.00, 1013.9,   98.6, -999.0
13-10-2022, 00:43:07,    211,    0.0,   10.8,   0.00,   0.00, 1013.9,   98.6, -999.0
13-10-2022, 00:43:16,    211,    0.0,   10.8,   0.00,   0.00, 1013.9,   98.6, -999.0
13-10-2022, 00:43:26,    211,    0.0,   10.8,   0.00,   0.00, 1013.9,   98.6, -999.0
13-10-2022, 00:43:37,    212,    0.0,   10.8,   0.00,   0.00, 1013.9,   98.7, -999.0
13-10-2022, 00:43:46,    211,    0.0,   10.8,   0.00,   0.00, 1013.9,   98.6, -999.0
13-10-2022, 00:43:56,    211,    0.0,   10.8,   0.00,   0.00, 1013.9,   98.6, -999.0
13-10-2022, 00:44:06,    211,    0.0,   10.8,   0.00,   0.00, 1013.9,   98.7, -999.0
13-10-2022, 00:44:16,    211,    0.0,   10.8,   0.00,   0.00, 1013.9,   98.7, -999.0
13-10-2022, 00:44:26,    211,    0.0,   10.8,   0.00,   0.00, 1013.9,   98.6, -999.0
13-10-2022, 00:44:36,    211,    0.0,   10.8,   0.00,   0.00, 1013.9,   98.6, -999.0
13-10-2022, 00:44:46,    211,    0.0,   10.8,   0.00,   0.00, 1013.9,   98.6, -999.0
13-10-2022, 00:44:56,    218,    0.0,   10.8,   0.00,   0.00, 1013.9,   98.6, -999.0
13-10-2022, 00:45:06,    217,    0.0,   10.8,   0.00,   0.00, 1013.9,   98.6, -999.0
13-10-2022, 00:45:16,    218,    0.0,   10.8,   0.00,   0.00, 1013.9,   98.6, -999.0
13-10-2022, 00:45:26,    222,    0.0,   10.8,   0.00,   0.00, 1013.9,   98.6, -999.0
13-10-2022, 00:45:36,    222,    0.0,   10.8,   0.00,   0.00, 1013.9,   98.6, -999.0
13-10-2022, 00:45:46,    223,    0.0,   10.9,   0.00,   0.00, 1013.9,   98.6, -999.0
13-10-2022, 00:45:55,    223,    0.0,   10.8,   0.00,   0.00, 1013.9,   98.6, -999.0
13-10-2022, 00:46:06,    223,    0.0,   10.8,   0.00,   0.00, 1013.9,   98.6, -999.0
13-10-2022, 00:46:16,    228,    0.3,   10.8,   0.00,   0.00, 1014.0,   98.9, -999.0
13-10-2022, 00:46:25,    227,    0.1,   10.9,   0.00,   0.00, 1014.0,   98.7, -999.0
13-10-2022, 00:46:35,    227,    0.0,   10.8,   0.00,   0.00, 1013.9,   98.6, -999.0